カタログに戻る

INSAT 3DR

運用中気象GEO
NORAD 41752·PAYLOAD·🇮🇳 India

打ち上げ Sep 8, 2016 から Satish Dhawan Space Centre

Loading…

TLE

最新Source: Space-Track

元期: Sep 14, 2026, 20:59 UTC

1 41752U 16054A   26257.87494053 -.00000084  00000-0  00000-0 0  9990
2 41752   0.0334 103.2303 0011570 161.2850 118.3262  1.00271972 36719

AllMySatでINSAT 3DRをリアルタイム追跡

Download on the App Store